Regional Weather Roundup
Issued by NWS Portland, ME

Current Version | Previous Version | Text Only | Print | Product List | Glossary Off
Versions: 1 2 3 4 5 6 7 8 9 10 11 12 13 14 15 16 17 18 19 20 21 22 23 24 25 26 27 28 29 30 31 32 33 34 35 36 37 38 39 40 41 42 43 44 45 46 47 48 49 50

945
ASUS41 KGYX 262310
RWRGYX
WEATHER ROUNDUP FOR MAINE AND NEW HAMPSHIRE
NATIONAL WEATHER SERVICE GRAY ME
700 PM EDT WED APR 26 2017

MEZ002-005-006-010-012-015-018-020-021-024-026-027-029-270000-
MAINE

CITY           SKY/WX    TMP DP  RH WIND       PRES   REMARKS
PORTLAND       CLOUDY    52  51  97 NE10      29.91R FOG
SANFORD        CLOUDY    54  53  97 NE8       29.89R FOG
BAR HARBOR     CLOUDY    55  54  96 S22G30    29.97S
WISCASSET      LGT RAIN  54  53  97 SE3       29.95R FOG
ROCKLAND       CLOUDY    52  52 100 SE12G22   29.94R FOG
FRYEBURG       CLOUDY    53  53 100 N5        29.91S FOG
LEWISTONAUBURN CLOUDY    55  54  96 E5        29.92S
AUGUSTA        CLOUDY    54  52  93 NE3       29.94S FOG
WATERVILLE     LGT RAIN  55  55 100 N3        29.92S FOG
BANGOR         RAIN      57  57 100 CALM      29.96S FOG
GREENVILLE       N/A     51  51 100 E9        29.93F
MILLINOCKET    LGT RAIN  55  55 100 E3        29.99S FOG
HOULTON        CLOUDY    56  56 100 VRB3      30.00S
PRESQUE ISLE   LGT RAIN  54  53  97 SE5       30.00F
FRENCHVILLE    FOG       48  46  93 SE8       29.99S VSB<1/4
CARIBOU        CLOUDY    53  52  96 SE3       29.99S
$$

NHZ002-005-008-009-011-012-014-270000-
NEW HAMPSHIRE

CITY           SKY/WX    TMP DP  RH WIND       PRES   REMARKS
PORTSMOUTH     DRZL/FOG  53  53  99 E7        29.85S VSB 5/8
ROCHESTER      CLOUDY    54  52  93 NE5       29.87R
NASHUA         CLOUDY    56  56 100 N7        29.83F FOG
MANCHESTER     LGT RAIN  56  53  90 N8        29.82F FOG
CONCORD        CLOUDY    56  54  93 NE7       29.85F FOG
LACONIA        CLOUDY    53  51  93 NE8       29.88S
PLYMOUTH       CLOUDY    55  53  90 CALM      29.86S
BERLIN         CLOUDY    59  51  75 NW5       29.87F
WHITEFIELD     CLOUDY    58  49  72 E15G26    29.83F
JAFFREY        CLOUDY    55  55 100 VRB5      29.83F FOG
KEENE          CLOUDY    57  54  89 VRB6      29.83R
LEBANON        CLOUDY    59  53  80 E3        29.83S
MT WASHINGTON  FOG       46  46 100 S33         N/A  VSB 1/8
$$

VTZ005-007-008-270000-
VERMONT

CITY           SKY/WX    TMP DP  RH WIND       PRES   REMARKS
ST JOHNSBURY     N/A     61  57  87 MISG      29.80F
MONTPELIER     CLOUDY    57  55  93 W3        29.87S
BURLINGTON     CLOUDY    67  55  65 E8        29.78S
$$

MAZ007-012-024-CTZ003-RIZ002-NYZ038-NYZ072-270000-
SOUTHERN NEW ENGLAND AND NY

CITY           SKY/WX    TMP DP  RH WIND       PRES   REMARKS
BOSTON         FOG       50  50 100 NE8       29.82R VSB 1/8
WORCESTER      FOG       54  52  93 NE10      29.80F VSB<1/4
NANTUCKET      FOG       52  51  97 SE8       29.80R VSB<1/4
PROVIDENCE     CLOUDY    61  60  97 NE5       29.79R
HARTFORD       CLOUDY    60  55  83 N8        29.79S
ALBANY         MOCLDY    67  56  67 W6        29.77R
NEW YORK CITY  CLOUDY    58  55  90 NW5       29.79R FOG
$$

ANZ081-ANZ082-ANZ150-NHZ014-MEZ023>029-270000-
COASTAL MARINE OBSERVATIONS

STATION/POSITION TIME  TEMP    WIND        PRES    WAVE
                       AIR SEA DIR/SP/G            HT/PER
                 (UTC) (F)     (DEG/KT/KT) (MB)    (FT/S)
MOUNT DESERT ROC 2300   46                 1014.7R
MATINICUS ROCK   2300   47     130/ 23/ 24 1012.7R
ISLE OF SHOALS   2300   48      30/ 12/ 13 1010.9R
JEFFREYS LEDGE   2206      44                N/A     8/ 8
CASHES LEDGE BUO 2250   47 43              1012.8R   8/11
GEORGES BANK BUO 2150   52 42              1015.1   12/ 8
$$

.............KEY..............
   WCI - WIND CHILL
   TC  - TEMPERATURE IN CELSIUS
   VSB - VISIBILITY IN MILES
   HX  - HEAT INDEX
   FAIR- INDICATES FEW OR NO CLOUDS BELOW 12,000 FT, WITH NO
         SIGNIFICANT WEATHER AND/OR OBSTRUCTIONS TO VISIBILITY.






USA.gov is the U.S. government's official web portal to all federal, state and local government web resources and services.